TimeEDT,TemperatureF,Dew PointF,Humidity,Sea Level PressureIn,VisibilityMPH,Wind Direction,Wind SpeedMPH,Gust SpeedMPH,PrecipitationIn,Events,Conditions,WindDirDegrees,DateUTC
12:53 AM,78.1,73.0,84,29.94,10.0,SSW,4.6,-,N/A,,Clear,200,2013-05-23 04:53:00
1:53 AM,77.0,73.0,88,29.93,10.0,South,5.8,-,N/A,,Clear,190,2013-05-23 05:53:00
2:53 AM,77.0,72.0,84,29.92,10.0,South,5.8,-,N/A,,Partly Cloudy,190,2013-05-23 06:53:00
3:53 AM,77.0,71.1,82,29.92,10.0,SSW,4.6,-,N/A,,Partly Cloudy,210,2013-05-23 07:53:00
4:53 AM,75.9,72.0,87,29.94,10.0,Calm,Calm,-,N/A,,Partly Cloudy,0,2013-05-23 08:53:00
5:53 AM,75.0,72.0,90,29.94,10.0,South,3.5,-,N/A,,Partly Cloudy,180,2013-05-23 09:53:00
6:53 AM,75.0,72.0,90,29.97,10.0,Calm,Calm,-,N/A,,Partly Cloudy,0,2013-05-23 10:53:00
7:53 AM,77.0,73.0,88,29.99,10.0,West,3.5,-,N/A,,Partly Cloudy,270,2013-05-23 11:53:00
8:53 AM,80.1,73.9,81,30.00,10.0,WNW,8.1,-,N/A,,Mostly Cloudy,290,2013-05-23 12:53:00
9:53 AM,82.0,73.9,76,30.00,10.0,WNW,9.2,-,N/A,,Mostly Cloudy,290,2013-05-23 13:53:00
10:23 AM,82.4,73.4,74,30.00,10.0,West,10.4,-,N/A,,Mostly Cloudy,270,2013-05-23 14:23:00
10:53 AM,84.0,73.0,69,30.01,10.0,WSW,11.5,-,N/A,,Mostly Cloudy,250,2013-05-23 14:53:00
11:53 AM,86.0,71.1,61,30.01,10.0,WNW,8.1,-,N/A,,Mostly Cloudy,290,2013-05-23 15:53:00
12:53 PM,89.1,68.0,50,30.00,10.0,WNW,11.5,-,N/A,,Scattered Clouds,290,2013-05-23 16:53:00
1:53 PM,90.0,66.9,46,29.99,10.0,WNW,9.2,-,N/A,,Scattered Clouds,300,2013-05-23 17:53:00
2:53 PM,90.0,64.9,43,29.97,10.0,West,6.9,-,N/A,,Scattered Clouds,270,2013-05-23 18:53:00
3:53 PM,90.0,66.0,45,29.94,10.0,SSE,8.1,-,N/A,,Scattered Clouds,160,2013-05-23 19:53:00
4:53 PM,86.0,73.9,67,29.95,10.0,SE,10.4,-,N/A,,Partly Cloudy,140,2013-05-23 20:53:00
5:53 PM,84.9,75.0,72,29.95,10.0,ESE,11.5,-,N/A,,Partly Cloudy,120,2013-05-23 21:53:00
6:53 PM,82.9,73.9,74,29.95,10.0,SE,11.5,-,N/A,,Partly Cloudy,140,2013-05-23 22:53:00
7:53 PM,82.0,75.0,79,29.96,10.0,SSE,9.2,-,N/A,,Partly Cloudy,150,2013-05-23 23:53:00
8:53 PM,82.0,73.9,76,29.98,10.0,SSE,5.8,-,N/A,,Partly Cloudy,160,2013-05-24 00:53:00
9:53 PM,81.0,77.0,88,29.99,10.0,SSE,4.6,-,N/A,,Clear,150,2013-05-24 01:53:00
10:53 PM,80.1,77.0,90,29.99,10.0,SE,4.6,-,N/A,,Clear,140,2013-05-24 02:53:00
11:53 PM,80.1,75.9,87,30.00,10.0,SSE,4.6,-,N/A,,Clear,160,2013-05-24 03:53:00